{"data":{"norad_id":47279,"intl_designator":"2020-100X","name":"ONEWEB-0133","alt_names":[],"object_type":"PAYLOAD","status":"ACTIVE","operator":null,"country":"UK","launch_date":"2020-12-18","launch_site_code":"VOSTO","launch_vehicle":null,"mission":null,"orbit_class":"UNKNOWN","rcs_meters":null,"size_class":null,"mass_kg":null,"dimensions":null,"purposes":["comms"],"wikipedia_slug":null,"has_3d_model":false,"image_url":null,"decayed_at":null,"tle_current":{"epoch":"2026-05-25T03:10:24.499200Z","epoch_age_seconds":59797,"freshness":"FRESH","line1":"1 47279U 20100X   26145.13222800 -.00000091  00000+0 -28733-3 0  9995","line2":"2 47279  87.8964 355.2321 0001739  80.5295 279.6030 13.12441607261716","mean_motion":13.12441607,"eccentricity":0.0001739,"inclination_deg":87.8964,"raan_deg":355.2321,"arg_perigee_deg":80.5295,"mean_anomaly_deg":279.603,"bstar":-0.00028733,"rev_number":26171,"period_min":109.71916710958,"perigee_km":1212.4084375099,"apogee_km":1215.0488883875,"semimajor_km":7591.8656629487,"source":"CELESTRAK","updated_at":"2026-05-25T13:38:22.383806Z"}}}